Location: Sungai Ketit
(2.6833°N, 113.2333°E)
Time: 19:54:12
(UTC+00:00)

Ariane H10+ - Pass Details

Date: 23 May 2024
Orbit: 339 x 30457 km, 7.1° (Epoch: 18 June)

Event Time Altitude Azimuth Distance (km) Brightness Sun altitude
Rises 10:21:36 0° 275° (W) 15,099 12.0 1.5°
Reaches altitude 10° 10:42:35 10° 277° (W) 8,458 10.5 -3.4°
Maximum altitude 11:00:44 70° 359° (N) 1,093 4.4 -7.6°
Drops below altitude 10° 11:04:20 10° 84° (E) 1,865 5.0 -8.5°
Enters shadow 11:04:33 - 85° (E) 1,962 5.1 -8.5°
